Location: DARK SKY Beskydy - Park tmavé oblohy, www.darkskybeskydy.cz
(49.4926°N, 18.5016°E)
Time: 10:39:43
(UTC+02:00)

BlueWalker 3 - Pass Details

Date: 24 June 2024
Orbit: 480 x 491 km, 53.2° (Epoch: 23 July)

Event Time Altitude Azimuth Distance (km) Brightness Sun altitude
Rises 02:34:35 0° 292° (WNW) 2,538 5.5 -13.4°
Reaches altitude 10° 02:36:55 10° 281° (W) 1,656 4.4 -13.2°
Maximum altitude 02:40:13 30° 219° (SW) 886 2.6 -13.0°
Enters shadow 02:43:28 10° 157° (SSE) 1,639 4.2 -12.7°
